Arden, NC

9:47 AM EST on December 04, 2016 (GMT -0500)
Asheville Regional

Weather History for KAVL - December, 2011

Change the Weather History Date:

Friday, December 23, 2011

  Actual Average Record
Temperature  
Mean Temperature 46 °F 38 °F  
Max Temperature 54 °F 48 °F 69 °F (1933)
Min Temperature 38 °F 28 °F 1 °F (1989)
Degree Days  
Heating Degree Days 19 27  
Month to date heating degree days 450 574  
Since 1 July heating degree days 1290 1441  
Cooling Degree Days 0 0  
Month to date cooling degree days 0 0  
Year to date cooling degree days 1201 863  
Moisture  
Dew Point 40 °F    
Average Humidity 79    
Maximum Humidity 93    
Minimum Humidity 65    
Precipitation  
Precipitation 0.06 in 0.11 in 2.22 in (1990)
Month to date precipitation 4.17 2.75  
Year to date precipitation 45.10 44.73  
Snow  
Snow 0.00 in 0.00 in 2.20 in (1963)
Month to date snowfall T 0.4  
Since 1 July snowfall T 0.5  
Snow Depth 0.00 in    
Sea Level Pressure  
Sea Level Pressure 30.12 in    
Wind  
Wind Speed 12 mph (NNW)    
Max Wind Speed 25 mph    
Max Gust Speed 31 mph    
Visibility 10 miles    
Events      
T = Trace of Precipitation, MM = Missing Value Source: NWS Daily Summary

Daily Weather History Graph

Daily Weather History Graph

Search for Another Location

Airport or City:

Trip Planner

Search our weather history database for the weather conditions in past years. The results will help you decide how hot, cold, wet, or windy it might be!

Date:

Astronomy

Dec. 23, 2011 Rise Set
Actual Time 7:36 AM EST 5:22 PM EST
Civil Twilight 7:07 AM EST 5:50 PM EST
Nautical Twilight 6:35 AM EST 6:22 PM EST
Astronomical Twilight 6:04 AM EST 6:53 PM EST
Moon 6:24 AM EST (12/23) 4:29 PM EST (12/23)
Length of Visible Light 10h 42m
Length of Day
9h 45m
Waning Crescent, 1% of the Moon is Illuminated
Dec 23
Waning Crescent
Dec 24
New
Jan 1
First Quarter
Jan 9
Full
Jan 16
Last Quarter

Hourly Weather History & Observations

Time (EST) Temp. Windchill Dew Point Humidity Pressure Visibility Wind Dir Wind Speed Gust Speed Precip Events Conditions
12:31 AM 51.8 °F - 48.2 °F 88% 29.98 in 10.0 mi North 13.8 mph 23.0 mph 0.06 in   Overcast
12:46 AM 51.8 °F - 46.4 °F 82% 29.98 in 10.0 mi North 13.8 mph 25.3 mph 0.06 in   Scattered Clouds
12:54 AM 51.8 °F - 46.4 °F 82% 29.98 in 10.0 mi North 17.3 mph 27.6 mph N/A   Mostly Cloudy
1:54 AM 48.0 °F - 45.0 °F 89% 29.99 in 10.0 mi NNW 19.6 mph 31.1 mph N/A   Scattered Clouds
2:05 AM 48.2 °F - 44.6 °F 87% 30.02 in 10.0 mi North 13.8 mph 23.0 mph N/A   Mostly Cloudy
2:33 AM 46.4 °F 39.5 °F 44.6 °F 93% 30.04 in 10.0 mi North 17.3 mph 27.6 mph N/A   Scattered Clouds
2:42 AM 46.4 °F 41.9 °F 44.6 °F 93% 30.04 in 10.0 mi North 9.2 mph 20.7 mph N/A   Mostly Cloudy
2:54 AM 46.9 °F - 44.1 °F 90% 30.01 in 10.0 mi NNW 8.1 mph 18.4 mph N/A   Mostly Cloudy
3:02 AM 46.4 °F 41.1 °F 44.6 °F 93% 30.04 in 10.0 mi North 11.5 mph - N/A   Overcast
3:15 AM 46.4 °F 41.1 °F 42.8 °F 87% 30.04 in 10.0 mi North 11.5 mph - N/A   Mostly Cloudy
3:54 AM 46.0 °F 38.8 °F 43.0 °F 89% 30.02 in 10.0 mi NNW 18.4 mph 29.9 mph N/A   Mostly Cloudy
4:35 AM 44.6 °F 36.4 °F 42.8 °F 93% 30.05 in 10.0 mi NNW 20.7 mph 31.1 mph N/A   Scattered Clouds
4:54 AM 45.0 °F 37.9 °F 42.1 °F 90% 30.04 in 10.0 mi North 16.1 mph 21.9 mph N/A   Mostly Cloudy
5:04 AM 44.6 °F 37.8 °F 42.8 °F 93% 30.07 in 10.0 mi NNW 15.0 mph 23.0 mph N/A   Mostly Cloudy
5:42 AM 44.6 °F 38.1 °F 41.0 °F 87% 30.08 in 10.0 mi North 13.8 mph 21.9 mph N/A   Scattered Clouds
5:54 AM 45.0 °F 39.7 °F 41.0 °F 86% 30.06 in 10.0 mi North 10.4 mph 21.9 mph N/A   Mostly Cloudy
6:54 AM 44.6 °F 38.1 °F 41.0 °F 87% 30.13 in 10.0 mi North 13.8 mph - N/A   Overcast
7:54 AM 45.0 °F 38.5 °F 39.9 °F 82% 30.12 in 10.0 mi North 13.8 mph 21.9 mph N/A   Mostly Cloudy
8:54 AM 45.0 °F 38.5 °F 39.9 °F 82% 30.15 in 10.0 mi NNW 13.8 mph 20.7 mph N/A   Scattered Clouds
9:54 AM 46.0 °F 39.9 °F 39.9 °F 79% 30.17 in 10.0 mi North 13.8 mph 21.9 mph N/A   Mostly Cloudy
10:54 AM 46.9 °F - 37.9 °F 71% 30.18 in 10.0 mi NNW 16.1 mph 23.0 mph N/A   Mostly Cloudy
11:54 AM 46.9 °F - 37.9 °F 71% 30.18 in 10.0 mi North 15.0 mph 23.0 mph N/A   Overcast
12:54 PM 48.9 °F - 39.0 °F 69% 30.17 in 10.0 mi North 11.5 mph 17.3 mph N/A   Mostly Cloudy
1:31 PM 48.2 °F - 37.4 °F 66% 30.17 in 10.0 mi NNW 15.0 mph - N/A   Scattered Clouds
1:54 PM 48.9 °F - 37.9 °F 66% 30.15 in 10.0 mi North 16.1 mph 24.2 mph N/A   Scattered Clouds
2:54 PM 48.0 °F - 37.0 °F 66% 30.16 in 10.0 mi North 13.8 mph 25.3 mph N/A   Scattered Clouds
3:54 PM 46.9 °F - 37.0 °F 68% 30.18 in 10.0 mi North 12.7 mph 21.9 mph N/A   Clear
4:54 PM 46.0 °F 40.2 °F 36.0 °F 68% 30.19 in 10.0 mi North 12.7 mph 19.6 mph N/A   Clear
5:54 PM 45.0 °F 41.2 °F 36.0 °F 71% 30.22 in 10.0 mi NNW 6.9 mph - N/A   Partly Cloudy
6:54 PM 44.1 °F 40.1 °F 36.0 °F 73% 30.24 in 10.0 mi North 6.9 mph - N/A   Scattered Clouds
7:54 PM 42.1 °F 38.4 °F 36.0 °F 79% 30.26 in 10.0 mi NNW 5.8 mph - N/A   Clear
8:54 PM 42.1 °F 38.4 °F 35.1 °F 76% 30.26 in 10.0 mi NNW 5.8 mph - N/A   Clear
9:54 PM 41.0 °F 39.0 °F 35.1 °F 79% 30.27 in 10.0 mi North 3.5 mph - N/A   Clear
10:54 PM 41.0 °F 38.0 °F 35.1 °F 79% 30.28 in 10.0 mi North 4.6 mph - N/A   Clear
11:54 PM 39.0 °F 34.8 °F 35.1 °F 86% 30.28 in 10.0 mi NNW 5.8 mph - N/A   Clear